Location: M?digepalle
(16.1753°N, 80.3496°E)
Time: 08:45:11
(UTC+00:00)

SL-16 R/B - Pass Details

Date: 29 October 2020
Orbit: 842 x 846 km, 71.0° (Epoch: 27 November)

Event Time Altitude Azimuth Distance (km) Brightness Sun altitude
Rises 13:25:26 0° 179° (S) 3,385 5.4 -18.7°
Reaches altitude 10° 13:28:01 10° 172° (S) 2,452 4.6 -19.3°
Maximum altitude 13:33:13 39° 104° (ESE) 1,233 2.6 -20.5°
Enters shadow 13:33:33 39° 96° (E) 1,240 2.6 -20.6°
